Wind_Speed
76 81 87 87 90 91 92 94 92 90 87 85 86 84 85 85 81 83 82 78 78 72 71 71 72 72 72 69 72 73 72 71 70 68 69 72 73 75 75 75 76 79 76 72 74 76 71 71 70
63 73 77 82 86 90 92 92 92 89 89 87 88 88 85 86 82 84 83 78 75 72 70 67 68 73 72 71 72 73 75 72 72 71 73 73 75 74 71 74 71 70 70 74 73 69 66 63 53
58 62 71 75 77 85 94 94 91 88 87 88 89 89 87 87 86 87 84 79 73 66 66 64 63 66 70 69 71 74 74 71 69 72 75 76 73 70 69 68 67 68 73 69 64 58 63 60 51
51 56 59 66 73 89 86 87 85 85 88 87 87 85 89 91 89 86 80 79 71 60 58 55 58 60 58 67 67 67 74 74 72 71 70 69 69 70 65 67 70 69 65 55 56 60 57 57 62
45 49 51 58 75 82 77 79 77 79 83 84 79 75 79 80 77 77 72 68 62 55 51 50 50 54 60 60 64 61 61 67 70 71 69 68 69 59 61 63 64 61 53 54 61 62 62 64 64
41 43 48 59 68 68 66 74 68 78 80 77 78 71 66 60 64 56 42 37 39 44 44 40 49 58 57 57 53 64 68 64 65 65 58 61 59 63 66 62 61 53 53 59 61 57 63 71 79
34 39 45 56 57 56 61 65 59 66 69 72 71 71 67 56 55 47 39 33 36 30 25 35 50 55 59 58 65 64 52 57 62 54 57 57 59 62 62 56 57 53 58 62 67 65 81 80 80
28 33 38 50 51 55 53 51 53 58 61 68 63 59 61 49 49 40 35 46 34 30 34 33 46 51 45 55 50 48 49 53 52 51 52 54 55 62 56 56 53 60 66 66 67 75 80 80 74
28 35 41 50 46 38 29 36 42 52 52 55 55 56 52 45 44 43 40 39 39 37 36 46 45 50 53 49 48 50 52 47 49 52 49 55 66 65 59 56 61 60 62 73 71 70 74 86 85
31 36 46 38 27 24 26 34 42 46 44 46 45 47 44 36 40 41 38 38 42 44 45 48 54 51 50 44 44 44 49 51 54 56 55 57 55 57 58 57 58 59 69 81 87 86 86 84 92
32 39 33 19 20 23 30 33 39 39 43 42 41 38 27 34 42 38 36 42 42 37 45 48 53 57 53 52 49 53 55 60 61 62 57 54 57 60 60 68 80 79 86 84 84 86 93 94 96
36 34 25 21 18 25 27 34 36 40 34 31 22 25 30 39 42 36 40 37 48 51 51 64 57 54 56 57 57 61 62 67 58 49 62 60 65 75 77 76 74 79 86 93 96 93 96 92 93
30 28 22 23 25 33 35 39 38 39 30 26 23 28 33 29 37 40 33 34 42 54 59 69 60 54 62 57 59 62 61 58 68 73 71 74 71 76 77 82 89 89 92 95 95 98 96 100 97
21 18 17 22 27 33 38 41 42 33 29 27 33 23 27 34 35 33 37 41 38 52 55 60 56 53 58 55 56 58 62 64 64 66 71 68 78 81 83 89 92 95 98 99 93 89 87 87 89
21 24 17 23 26 31 37 40 43 40 32 31 14 23 19 20 29 35 36 44 37 46 56 46 50 55 59 66 64 66 68 67 73 74 75 78 82 82 82 83 88 93 91 87 90 94 92 88 92
30 26 25 26 26 33 37 41 44 39 40 33 30 30 30 28 30 34 38 42 48 55 56 52 55 58 62 65 68 71 67 72 76 77 81 82 87 89 93 82 84 84 87 92 91 89 83 82 82
30 26 24 29 28 31 38 39 43 40 36 32 30 32 33 34 33 33 40 43 48 63 69 64 61 64 71 67 69 66 65 68 71 67 78 77 78 79 82 86 83 85 82 75 73 75 73 70 70
26 26 27 32 29 29 29 30 30 36 39 37 32 32 39 44 42 36 45 46 48 50 52 58 64 68 63 71 73 75 73 72 74 77 77 82 88 87 86 82 82 80 69 64 67 66 69 71 73
25 26 28 29 29 26 21 25 33 32 36 37 32 40 42 39 46 46 45 45 49 53 55 47 48 48 54 60 64 66 69 72 73 79 79 81 80 81 78 79 72 66 63 62 64 66 70 73 76
23 22 29 26 22 20 19 18 23 25 26 29 30 37 42 39 43 44 47 45 47 50 47 49 53 57 55 57 60 65 69 69 71 73 77 80 80 78 75 68 63 62 61 65 69 72 73 78 82
20 25 25 23 22 21 21 19 20 24 24 25 25 26 31 35 30 30 39 43 45 47 48 52 54 56 62 63 64 65 68 70 68 75 76 76 71 65 61 58 61 63 66 71 74 76 77 81 86
21 25 23 25 22 23 27 24 22 20 24 26 27 28 29 33 36 32 33 35 37 40 37 41 47 49 55 55 54 56 61 61 63 66 65 62 61 59 61 61 63 66 71 76 80 81 83 86 89
21 25 23 22 21 26 28 21 21 23 25 24 26 31 35 39 38 37 38 40 42 43 47 50 50 51 49 55 58 60 60 61 60 60 59 60 63 62 62 65 67 72 77 81 83 85 89 92 95
24 24 24 21 21 27 24 24 24 25 28 31 31 31 32 36 37 40 43 44 44 43 44 45 45 50 53 55 55 52 52 55 56 58 60 63 65 65 68 71 74 76 81 85 87 89 92 95 99
23 24 22 23 26 25 28 23 25 26 28 28 28 28 30 33 35 35 34 36 35 34 33 37 43 47 44 44 47 49 52 55 58 61 63 65 68 70 74 75 77 80 84 85 88 92 94 99 97
19 22 23 24 25 24 27 22 22 25 27 29 28 26 27 30 35 37 31 30 30 33 33 36 37 41 43 46 49 51 54 58 61 64 64 67 69 70 73 75 80 83 83 89 92 95 100 100 96
21 22 23 23 22 23 18 23 28 29 29 29 30 28 26 29 31 30 29 29 38 37 34 37 41 44 45 48 50 55 57 60 62 62 64 67 69 72 73 76 79 84 89 92 97 103 101 99 99
21 22 21 24 27 26 25 26 31 30 32 33 33 32 28 28 28 29 31 36 36 36 38 41 40 42 41 49 53 57 60 58 59 62 67 69 70 70 74 80 85 90 93 97 103 103 102 103 106
24 26 24 23 28 30 27 29 31 31 30 27 28 27 29 29 29 29 33 33 35 38 39 39 39 41 45 50 55 59 62 64 68 69 68 72 75 79 84 88 92 96 98 103 105 103 105 110 114
28 29 30 31 31 33 33 32 34 32 27 26 28 30 30 27 28 30 31 35 36 39 40 41 43 46 50 53 57 62 66 70 72 73 74 77 81 85 90 93 97 101 104 105 104 107 112 114 112
Wind_Direction
252 249 245 243 243 244 246 246 248 250 250 253 254 255 257 258 258 259 261 260 260 261 263 265 267 270 270 272 275 277 277 278 275 275 276 275 277 279 279 279 282 282 284 285 286 288 291 287 290
252 250 246 242 239 241 243 245 245 248 249 251 252 253 254 257 258 260 260 262 263 266 267 266 264 265 268 273 273 275 277 278 278 277 274 276 278 279 281 283 281 285 285 285 286 290 286 292 291
250 250 245 241 241 240 240 242 246 247 248 250 252 254 255 257 260 260 261 263 265 270 269 270 270 270 267 268 269 269 271 273 273 273 274 276 278 281 283 282 282 279 284 285 284 286 292 289 293
254 246 243 241 238 238 240 241 244 247 249 249 248 252 254 256 257 262 265 269 270 271 271 272 269 266 268 270 267 268 270 271 270 272 275 278 280 284 282 282 280 284 287 281 285 289 290 297 296
247 245 241 239 240 237 237 239 244 248 251 251 254 252 255 258 262 264 268 270 273 266 264 264 264 258 259 262 266 269 270 270 273 273 276 279 279 279 281 282 280 282 283 285 286 289 291 293 289
242 238 235 237 239 241 236 238 239 241 247 250 252 254 255 257 257 263 257 258 263 256 255 255 259 260 260 263 263 274 279 277 276 278 275 277 277 279 284 279 279 275 282 287 295 292 288 293 299
239 232 230 236 238 238 235 237 241 248 250 252 253 252 256 253 260 257 254 239 239 241 244 244 264 268 269 267 274 275 281 276 274 271 274 279 276 286 279 275 277 279 287 287 289 286 293 294 295
234 229 230 235 236 238 236 237 236 240 241 247 249 250 254 260 259 249 226 233 230 226 260 262 266 275 270 273 273 270 275 271 269 272 278 283 283 290 274 274 289 291 289 286 284 290 293 289 291
216 219 224 231 234 240 243 239 238 241 244 247 251 249 251 251 246 244 221 220 227 212 236 247 249 258 262 257 263 274 270 276 276 281 278 277 286 286 279 286 287 290 281 282 285 286 290 295 296
210 217 224 232 238 234 227 228 228 231 231 237 234 249 248 235 234 233 225 218 213 219 224 237 247 242 250 261 265 262 271 275 281 285 280 283 286 285 285 287 279 278 285 290 290 293 292 296 297
208 215 228 228 223 215 213 220 222 215 222 230 237 241 228 220 228 225 228 207 205 200 224 226 233 236 243 259 258 262 270 280 279 274 276 280 279 282 281 281 284 282 286 289 293 294 296 296 300
198 221 218 214 212 221 226 214 207 209 220 230 225 195 207 208 223 235 221 207 203 204 207 229 230 243 248 257 260 263 265 269 266 275 275 278 273 274 273 281 288 287 287 289 291 297 299 300 301
209 218 217 219 217 227 217 206 197 210 220 215 200 197 207 217 222 230 219 224 217 210 222 226 231 242 256 259 263 264 268 266 275 268 268 272 276 283 282 279 283 287 289 295 298 298 299 301 300
213 216 227 229 217 218 207 201 199 206 206 212 219 204 211 220 223 230 236 226 223 219 230 229 232 244 246 254 251 254 252 258 265 264 266 276 284 287 290 286 284 289 291 293 300 301 298 301 300
207 217 223 223 213 210 200 199 200 197 201 210 204 217 208 220 214 217 220 230 226 220 215 229 228 231 239 244 246 255 256 258 263 266 270 275 282 284 289 289 287 289 294 295 296 297 298 296 298
222 212 209 216 211 205 204 201 202 205 207 217 207 215 204 224 223 227 219 213 218 214 214 226 230 237 243 250 256 253 254 262 267 273 274 278 281 285 287 291 291 295 294 296 295 296 298 297 298
219 213 206 209 207 205 207 209 211 218 217 221 216 227 210 211 219 220 210 215 216 217 219 225 235 242 244 257 255 258 267 269 271 277 275 287 286 289 291 291 292 294 296 295 296 298 300 302 303
211 214 204 201 202 209 207 212 218 220 224 231 233 236 225 213 216 216 216 222 220 223 229 234 243 247 257 259 261 263 272 271 275 276 281 287 288 290 290 291 291 295 295 295 298 300 301 303 304
210 205 199 201 208 213 198 218 222 224 221 226 225 224 214 222 224 231 227 233 230 238 230 239 254 258 260 261 260 264 270 273 281 281 287 284 285 289 290 292 291 290 291 295 299 300 302 306 308
208 211 198 202 217 217 217 225 226 222 228 233 231 220 229 230 229 239 239 238 239 241 243 246 253 260 262 267 268 271 269 272 279 280 277 282 286 288 290 289 289 291 294 296 299 302 305 308 309
219 208 203 208 215 222 230 226 227 231 232 230 224 232 233 227 231 245 249 250 250 255 259 258 259 264 267 268 269 272 275 278 280 277 279 282 285 285 286 287 290 292 294 298 303 305 306 309 310
215 211 211 217 218 226 228 236 229 226 231 230 231 231 233 230 225 224 248 255 260 260 261 261 266 269 265 270 275 277 280 282 283 284 284 285 285 285 286 287 288 291 296 301 305 307 307 308 310
225 214 213 215 220 224 225 231 223 226 228 233 250 247 240 237 237 233 239 253 268 271 274 276 276 275 275 278 282 282 281 283 283 286 285 285 286 286 286 286 290 295 299 305 306 305 307 308 308
232 222 209 215 223 226 223 230 240 236 237 237 239 241 249 253 251 249 248 253 265 270 272 274 273 273 275 275 276 280 282 283 284 282 285 286 286 287 290 292 296 301 303 305 305 306 307 307 307
239 225 222 230 239 234 234 238 228 234 239 243 242 245 254 259 265 264 264 254 258 265 270 269 270 272 278 279 279 279 280 282 284 285 290 290 292 292 293 294 295 297 303 304 304 304 305 306 307
242 231 228 238 250 243 242 244 249 251 254 258 256 253 255 265 276 275 268 267 273 283 274 273 273 277 277 277 277 279 282 285 289 293 293 292 293 294 295 297 299 301 302 305 305 306 307 308 308
241 232 241 245 247 256 255 253 258 261 268 272 273 273 270 272 268 271 274 275 280 273 268 271 273 276 279 282 283 286 289 292 295 298 297 296 297 298 301 302 303 305 306 306 307 309 310 309 308
224 231 243 252 259 261 263 251 257 260 268 271 273 276 273 270 269 270 274 275 270 271 272 274 278 283 280 289 296 299 298 300 302 302 302 303 305 306 306 306 307 308 308 308 309 309 309 308 308
235 242 245 254 264 272 272 263 264 273 276 272 271 270 268 267 269 269 265 268 274 278 281 283 287 290 292 294 295 299 303 306 307 307 306 310 311 310 310 310 309 310 309 309 309 309 309 309 309
256 257 258 264 269 272 269 270 273 276 271 273 273 269 270 268 260 265 275 280 282 287 292 292 291 291 293 294 297 302 306 308 307 306 305 308 309 310 311 310 310 309 309 309 308 309 310 309 309
Height
10717 10724 10731 10742 10749 10752 10757 10760 10768 10777 10785 10791 10793 10796 10795 10800 10810 10813 10815 10821 10825 10831 10835 10839 10840 10839 10838 10840 10837 10834 10834 10836 10837 10837 10834 10832 10830 10826 10824 10822 10819 10816 10813 10811 10810 10809 10806 10807 10807
10702 10707 10715 10723 10729 10735 10739 10745 10751 10765 10773 10776 10778 10781 10786 10787 10797 10798 10801 10808 10815 10822 10825 10828 10829 10828 10827 10828 10828 10825 10821 10823 10824 10824 10821 10820 10818 10815 10813 10809 10805 10803 10800 10798 10797 10796 10792 10793 10795
10687 10692 10698 10708 10713 10716 10714 10728 10740 10751 10760 10764 10767 10771 10776 10779 10781 10784 10790 10799 10806 10812 10814 10817 10819 10819 10818 10817 10817 10815 10812 10813 10813 10811 10807 10807 10806 10804 10801 10796 10793 10791 10788 10787 10786 10784 10782 10778 10784
10673 10677 10684 10690 10693 10687 10710 10723 10734 10737 10741 10747 10754 10759 10760 10762 10769 10777 10785 10789 10798 10800 10803 10806 10805 10805 10807 10806 10803 10801 10799 10802 10801 10799 10799 10796 10794 10792 10787 10784 10780 10779 10778 10777 10776 10774 10771 10766 10769
10659 10665 10672 10674 10663 10676 10703 10714 10725 10729 10732 10739 10741 10750 10753 10755 10763 10769 10778 10779 10784 10786 10789 10790 10788 10788 10789 10793 10792 10791 10790 10790 10789 10790 10788 10785 10785 10781 10776 10773 10769 10769 10768 10767 10765 10762 10759 10756 10757
10647 10654 10658 10654 10655 10678 10696 10700 10711 10713 10718 10725 10731 10734 10736 10749 10755 10764 10766 10770 10773 10771 10774 10776 10775 10774 10782 10781 10781 10780 10779 10780 10778 10777 10777 10776 10774 10771 10768 10763 10762 10760 10758 10757 10755 10752 10747 10742 10740
10637 10644 10646 10643 10653 10669 10679 10691 10707 10706 10712 10713 10717 10719 10728 10736 10751 10758 10761 10760 10771 10765 10766 10769 10770 10775 10773 10773 10772 10769 10770 10768 10767 10766 10766 10766 10764 10761 10758 10755 10754 10751 10749 10748 10744 10741 10735 10731 10728
10631 10636 10642 10638 10646 10655 10674 10689 10693 10696 10697 10700 10706 10709 10718 10735 10738 10741 10749 10747 10754 10757 10759 10770 10768 10766 10762 10762 10760 10760 10760 10757 10757 10757 10758 10756 10754 10753 10750 10748 10744 10740 10741 10736 10734 10730 10727 10720 10716
10624 10627 10629 10626 10644 10660 10677 10679 10683 10683 10690 10694 10702 10700 10715 10725 10726 10727 10735 10741 10746 10747 10754 10758 10757 10756 10754 10749 10749 10749 10747 10748 10747 10748 10749 10748 10747 10744 10739 10738 10733 10732 10732 10725 10722 10719 10713 10704 10699
10617 10620 10618 10631 10651 10660 10662 10665 10670 10674 10678 10685 10688 10698 10708 10715 10714 10715 10723 10734 10739 10741 10745 10747 10748 10745 10742 10742 10743 10744 10743 10742 10741 10742 10742 10739 10736 10734 10731 10731 10725 10722 10717 10712 10706 10701 10698 10692 10685
10613 10613 10622 10637 10647 10652 10651 10656 10658 10665 10670 10675 10682 10695 10701 10707 10705 10705 10713 10722 10726 10733 10740 10738 10738 10734 10732 10735 10736 10738 10739 10738 10735 10736 10736 10734 10729 10728 10724 10721 10708 10708 10702 10699 10695 10688 10684 10677 10669
10606 10611 10623 10634 10641 10642 10645 10650 10657 10660 10666 10672 10683 10690 10693 10694 10695 10699 10707 10714 10716 10719 10722 10725 10727 10727 10727 10727 10730 10730 10731 10730 10727 10726 10723 10721 10718 10713 10708 10704 10699 10697 10690 10686 10682 10674 10667 10659 10654
10609 10615 10624 10630 10634 10635 10637 10646 10654 10657 10669 10669 10681 10684 10687 10690 10693 10696 10703 10707 10709 10714 10716 10716 10718 10719 10721 10721 10722 10723 10723 10721 10723 10718 10714 10709 10704 10700 10698 10695 10691 10683 10676 10671 10665 10659 10650 10644 10636
10611 10618 10624 10626 10630 10628 10637 10644 10651 10658 10664 10669 10675 10678 10681 10685 10689 10691 10694 10701 10704 10708 10712 10709 10710 10714 10715 10715 10712 10711 10709 10707 10703 10703 10702 10699 10692 10686 10683 10682 10676 10670 10663 10656 10648 10641 10634 10626 10618
10608 10615 10621 10621 10622 10629 10637 10641 10648 10655 10661 10661 10668 10671 10675 10677 10682 10686 10688 10692 10696 10699 10699 10706 10705 10702 10702 10702 10701 10700 10699 10699 10696 10693 10692 10689 10683 10679 10673 10668 10663 10657 10650 10644 10635 10628 10620 10611 10605
10607 10612 10614 10618 10623 10628 10635 10639 10647 10649 10653 10656 10662 10663 10666 10671 10677 10680 10682 10684 10689 10692 10695 10694 10693 10696 10694 10690 10686 10686 10690 10687 10685 10685 10681 10674 10668 10664 10660 10657 10649 10641 10637 10628 10621 10614 10605 10598 10590
10604 10610 10613 10616 10621 10626 10632 10636 10641 10644 10650 10654 10658 10661 10662 10667 10669 10672 10676 10677 10680 10680 10683 10683 10682 10683 10684 10679 10681 10682 10680 10676 10673 10671 10667 10663 10658 10652 10647 10642 10633 10627 10621 10614 10607 10598 10591 10584 10575
10601 10606 10611 10614 10619 10623 10629 10633 10637 10640 10646 10651 10656 10657 10659 10660 10662 10665 10668 10668 10669 10671 10675 10677 10675 10677 10674 10672 10672 10670 10669 10666 10664 10659 10655 10651 10644 10637 10630 10626 10621 10615 10610 10601 10594 10586 10578 10570 10563
10600 10605 10610 10614 10618 10622 10628 10629 10632 10636 10641 10646 10649 10651 10654 10656 10656 10657 10660 10663 10664 10664 10668 10669 10669 10669 10669 10666 10666 10664 10660 10657 10652 10645 10642 10638 10632 10628 10619 10612 10608 10603 10595 10588 10582 10574 10565 10556 10547
10601 10607 10611 10614 10618 10621 10625 10628 10630 10632 10635 10638 10643 10646 10650 10652 10652 10650 10652 10656 10659 10661 10664 10665 10663 10658 10657 10656 10653 10652 10649 10646 10644 10637 10633 10628 10623 10615 10606 10598 10593 10586 10580 10575 10567 10561 10552 10542 10531
10602 10605 10610 10613 10616 10619 10622 10625 10626 10627 10631 10636 10638 10640 10643 10647 10650 10646 10645 10647 10649 10652 10654 10655 10655 10651 10647 10645 10646 10644 10638 10635 10632 10625 10621 10617 10612 10604 10595 10587 10579 10572 10566 10559 10552 10544 10536 10527 10516
10600 10605 10608 10611 10614 10616 10618 10620 10624 10627 10629 10629 10632 10633 10636 10639 10641 10642 10640 10638 10641 10642 10643 10645 10642 10641 10638 10636 10634 10631 10625 10621 10618 10613 10608 10603 10596 10589 10581 10574 10568 10561 10553 10543 10533 10525 10517 10509 10498
10597 10601 10606 10609 10611 10612 10616 10620 10623 10626 10626 10627 10628 10631 10633 10632 10635 10640 10638 10635 10634 10633 10633 10631 10632 10630 10626 10624 10621 10619 10615 10610 10604 10599 10595 10590 10583 10576 10568 10561 10554 10546 10538 10528 10518 10509 10499 10489 10478
10597 10601 10604 10605 10608 10610 10616 10615 10616 10619 10621 10624 10626 10629 10626 10624 10628 10631 10635 10633 10630 10629 10628 10625 10620 10620 10620 10616 10612 10608 10603 10598 10593 10589 10583 10576 10568 10562 10555 10547 10539 10532 10522 10512 10501 10491 10481 10471 10459
10596 10598 10601 10602 10603 10607 10609 10613 10615 10615 10616 10619 10623 10624 10621 10619 10618 10620 10624 10625 10623 10621 10620 10618 10615 10613 10610 10604 10601 10598 10594 10588 10583 10577 10572 10564 10556 10550 10541 10533 10526 10518 10507 10497 10487 10475 10465 10451 10436
10593 10596 10597 10597 10599 10603 10605 10610 10610 10610 10609 10609 10613 10616 10617 10613 10610 10609 10611 10613 10611 10611 10613 10609 10606 10603 10600 10596 10592 10589 10585 10579 10573 10566 10561 10553 10545 10536 10525 10518 10510 10500 10490 10478 10464 10452 10439 10423 10409
10587 10589 10591 10593 10595 10598 10604 10605 10602 10602 10602 10602 10604 10606 10608 10607 10605 10603 10601 10602 10603 10604 10604 10602 10598 10594 10590 10586 10581 10576 10572 10568 10561 10554 10546 10537 10529 10520 10511 10499 10488 10477 10465 10452 10438 10424 10411 10397 10384
10582 10585 10587 10588 10589 10593 10597 10599 10596 10598 10597 10596 10596 10596 10598 10599 10597 10597 10595 10596 10595 10595 10595 10593 10590 10585 10579 10572 10564 10558 10555 10551 10545 10537 10527 10517 10509 10499 10489 10478 10467 10455 10441 10427 10413 10399 10386 10374 10361
10579 10582 10584 10585 10583 10585 10590 10591 10590 10591 10591 10589 10589 10589 10589 10590 10590 10590 10591 10590 10588 10585 10584 10582 10578 10572 10568 10562 10555 10548 10541 10533 10525 10516 10505 10496 10488 10479 10468 10457 10444 10432 10419 10404 10390 10377 10364 10348 10333
10575 10578 10579 10579 10579 10578 10581 10583 10583 10584 10584 10584 10582 10582 10582 10583 10584 10584 10583 10581 10577 10574 10571 10570 10568 10564 10559 10552 10545 10537 10527 10518 10509 10500 10492 10482 10471 10461 10449 10436 10423 10409 10396 10381 10367 10353 10339 10322 10306